Home   Weather   Kamp-Lintfort   Past weeks

Flag for Germany Past Weather in Kamp-Lintfort, North Rhine-Westphalia, Germany — Yesterday and Last 2 Weeks

55 °F

Partly sunny.

Feels Like: 53 °F
Forecast: 50 / 57 °F
Wind: 8 mph from West

Location: Duesseldorf

Current Time: Oct 27, 2016 at 4:56:35 PM

Latest Report: Oct 27, 2016 at 4:20 PM

Visibility: N/A

Pressure: 30.51 "Hg

Humidity: 82%

Dew Point: 50 °F

Location of Kamp-LintfortLocation

Past Weather in Kamp-Lintfort — Graph


Kamp-Lintfort Temperature Yesterday

Maximum temperature yesterday: 55 °F (at 1:20 PM)
Minimum temperature yesterday: 48 °F (at 12:20 AM)
Average temperature yesterday: 50 °F

High & Low Weather Summary for the Past Weeks

High66 °F (Oct 16, 2:20 PM)100% (Oct 14, 11:20 PM)30.51 "Hg (Oct 14, 11:20 PM)
Low32 °F (Oct 23, 6:20 AM)52% (Oct 16, 2:20 PM)29.65 "Hg (Oct 15, 1:20 AM)
Average49 °F88%30.03 "Hg
* Reported Oct 12 3:20 PM — Oct 27 3:20 PM, Kamp-Lintfort, Weather by CustomWeather, © 2016

Note: Actual official high and low records may vary slightly from our data, if they occured in-between our weather recording intervals... More about our weather records


Kamp-Lintfort Weather History for the Previous 24 Hours

Scroll right to see more
Time TempWeatherWind HumidityBarometerVisibility
3:20 PM
Thu, Oct 27
55 °FPartly sunny.10 mph82%30.51 "Hg5 mi
2:50 PM55 °FPartly sunny.9 mph88%30.48 "Hg5 mi
2:20 PM55 °FBroken clouds.9 mph88%30.51 "Hg5 mi
1:50 PM55 °FBroken clouds.8 mph88%30.51 "Hg5 mi
1:20 PM55 °FPartly sunny.9 mph88%30.51 "Hg5 mi
12:50 PM55 °FPartly sunny.7 mph88%30.51 "Hg4 mi
12:20 PM54 °FLow clouds.8 mph94%30.51 "Hg4 mi
11:50 AM54 °FLow clouds.9 mph94%30.51 "Hg4 mi
11:20 AM52 °FLow clouds.9 mph94%30.51 "Hg4 mi
10:50 AM52 °FLow clouds.9 mph94%30.51 "Hg4 mi
10:20 AM52 °FLow clouds.9 mph88%30.51 "Hg4 mi
9:50 AM52 °FPartly sunny.9 mph88%30.48 "Hg4 mi
9:20 AM50 °FPartly sunny.8 mph94%30.48 "Hg4 mi
8:50 AM50 °FPartly sunny.10 mph88%30.48 "Hg4 mi
8:20 AM52 °FPartly sunny.7 mph82%30.48 "Hg5 mi
7:50 AM50 °FPassing clouds.8 mph88%30.45 "Hg6 mi
7:20 AM50 °FPartly cloudy.9 mph88%30.45 "Hg6 mi
6:50 AM52 °FPassing clouds.7 mph82%30.45 "Hg5 mi
6:20 AM52 °FPassing clouds.8 mph82%30.45 "Hg4 mi
5:50 AM50 °FPassing clouds.8 mph88%30.45 "Hg4 mi
5:20 AM50 °FPassing clouds.7 mph88%30.45 "Hg4 mi
4:50 AM50 °FPassing clouds.7 mph88%30.45 "Hg4 mi
4:20 AM50 °FPassing clouds.8 mph88%30.45 "Hg4 mi
3:50 AM50 °FPassing clouds.7 mph88%30.45 "Hg4 mi
3:20 AM50 °FPassing clouds.8 mph88%30.45 "Hg4 mi
2:50 AM50 °FPassing clouds.6 mph88%30.45 "Hg4 mi
2:20 AM50 °FPassing clouds.6 mph88%30.45 "Hg4 mi
1:50 AM50 °FPassing clouds.8 mph88%30.42 "Hg4 mi
1:20 AM50 °FPassing clouds.7 mph88%30.45 "Hg4 mi
12:20 AM50 °FPartly cloudy.5 mph88%30.45 "Hg4 mi
11:50 PM
Wed, Oct 26
48 °FPassing clouds.6 mph87%30.45 "Hg4 mi
11:20 PM48 °FPassing clouds.6 mph87%30.45 "Hg4 mi
10:50 PM50 °FPassing clouds.5 mph88%30.45 "Hg4 mi
10:20 PM50 °FPassing clouds.3 mph88%30.45 "Hg4 mi
9:50 PM50 °FPassing clouds.3 mph88%30.42 "Hg4 mi
9:20 PM48 °FPassing clouds.5 mph94%30.42 "Hg4 mi
8:50 PM48 °FPassing clouds.6 mph87%30.42 "Hg4 mi
8:20 PM50 °FPassing clouds.6 mph88%30.42 "Hg4 mi
7:50 PM50 °FPassing clouds.6 mph88%30.39 "Hg4 mi
7:20 PM50 °FPassing clouds.6 mph88%30.39 "Hg4 mi
6:50 PM50 °FPassing clouds.6 mph82%30.39 "Hg4 mi
6:20 PM50 °FClear.5 mph82%30.39 "Hg4 mi
5:50 PM52 °FClear.5 mph77%30.39 "Hg5 mi
5:20 PM52 °FClear.3 mph77%30.39 "Hg5 mi
4:50 PM54 °FClear.5 mph67%30.39 "Hg5 mi
4:20 PM54 °FPartly sunny.6 mph67%30.39 "Hg6 mi
Weather by CustomWeather, © 2016

See weather overviewHow to use our weather pages